When you browse on this site, cookies collect data to enhance your experience and personalize the content and advertising you see.
Visit our Privacy Policy to learn more. By continuing to use the site, you agree to this use of cookies and data.

Hourly Weather Heidelberg

Today, 29 September, Tuesday

Time Temperature Precipitation Wind Pressure Humidity
00:00 +10°C° 0 mm 1 mps 731 mmHg 83%
01:00 +10°C° 0 mm 1 mps 731 mmHg 85%
02:00 +10°C° 0 mm 1 mps 731 mmHg 84%
03:00 +10°C° 0 mm 1 mps 731 mmHg 84%
04:00 +11°C° 0 mm 1 mps 731 mmHg 83%
05:00 +11°C° 0.1 mm 1 mps 732 mmHg 84%
06:00 +11°C° 0.1 mm 1 mps 732 mmHg 85%
07:00 +10°C° 0.1 mm 2 mps 732 mmHg 87%
08:00 +10°C° 0 mm 2 mps 733 mmHg 86%
09:00 +12°C° 0 mm 2 mps 733 mmHg 86%
10:00 +11°C° 0 mm 3 mps 733 mmHg 86%
11:00 +12°C° 0 mm 3 mps 734 mmHg 84%
12:00 +12°C° 0 mm 3 mps 734 mmHg 83%
13:00 +12°C° 0 mm 4 mps 734 mmHg 81%
14:00 +12°C° 0 mm 4 mps 734 mmHg 81%
15:00 +12°C° 0 mm 3 mps 734 mmHg 81%
16:00 +12°C° 0 mm 3 mps 734 mmHg 81%
17:00 +11°C° 0.2 mm 3 mps 734 mmHg 84%
18:00 +12°C° 0.2 mm 2 mps 734 mmHg 87%
19:00 +12°C° 0.2 mm 2 mps 734 mmHg 89%
20:00 +12°C° 0.1 mm 2 mps 734 mmHg 89%
21:00 +10°C° 0.1 mm 2 mps 734 mmHg 89%
22:00 +11°C° 0.1 mm 1 mps 734 mmHg 89%
23:00 +11°C° 0 mm 1 mps 734 mmHg 89%

Tomorrow, 30 September, Wednesday

Time Temperature Precipitation Wind Pressure Humidity
00:00 +11°C° 0 mm 1 mps 734 mmHg 89%
01:00 +10°C° 0 mm 1 mps 734 mmHg 89%
02:00 +11°C° 0 mm 1 mps 734 mmHg 89%
03:00 +11°C° 0 mm 1 mps 733 mmHg 88%
04:00 +11°C° 0 mm 1 mps 733 mmHg 88%
05:00 +11°C° 0 mm 1 mps 733 mmHg 88%
06:00 +11°C° 0 mm 1 mps 733 mmHg 88%
07:00 +12°C° 0 mm 1 mps 733 mmHg 88%
08:00 +13°C° 0 mm 1 mps 733 mmHg 84%
09:00 +13°C° 0 mm 1 mps 733 mmHg 81%
10:00 +14°C° 0 mm 1 mps 733 mmHg 78%
11:00 +16°C° 0 mm 1 mps 732 mmHg 72%
12:00 +18°C° 0 mm 1 mps 732 mmHg 67%
13:00 +19°C° 0 mm 1 mps 732 mmHg 62%
14:00 +19°C° 0 mm 1 mps 731 mmHg 61%
15:00 +19°C° 0 mm 1 mps 731 mmHg 61%
16:00 +18°C° 0 mm 2 mps 730 mmHg 60%
17:00 +16°C° 0 mm 2 mps 730 mmHg 67%
18:00 +15°C° 0 mm 2 mps 730 mmHg 74%
19:00 +13°C° 0 mm 2 mps 729 mmHg 81%
20:00 +13°C° 0 mm 2 mps 729 mmHg 83%
21:00 +13°C° 0 mm 2 mps 729 mmHg 85%
22:00 +13°C° 0 mm 2 mps 729 mmHg 87%
23:00 +12°C° 0 mm 2 mps 728 mmHg 87%

Day after tomorrow, 1 October, Thursday

Time Temperature Precipitation Wind Pressure Humidity
00:00 +12°C° 0 mm 2 mps 728 mmHg 88%
01:00 +12°C° 0 mm 2 mps 728 mmHg 88%
02:00 +10°C° 0 mm 2 mps 727 mmHg 89%
03:00 +11°C° 0 mm 1 mps 727 mmHg 90%
04:00 +11°C° 0 mm 1 mps 726 mmHg 90%
05:00 +11°C° 0 mm 1 mps 726 mmHg 90%
06:00 +11°C° 0 mm 1 mps 726 mmHg 91%
07:00 +11°C° 0 mm 1 mps 725 mmHg 91%
08:00 +12°C° 0 mm 1 mps 725 mmHg 84%
09:00 +14°C° 0 mm 1 mps 725 mmHg 77%
10:00 +16°C° 0 mm 1 mps 725 mmHg 70%
11:00 +18°C° 0 mm 1 mps 725 mmHg 65%
12:00 +19°C° 0 mm 1 mps 724 mmHg 60%
13:00 +20°C° 0 mm 1 mps 724 mmHg 55%
14:00 +19°C° 0 mm 2 mps 724 mmHg 57%
15:00 +19°C° 0 mm 2 mps 723 mmHg 59%
16:00 +18°C° 0 mm 3 mps 723 mmHg 61%
17:00 +17°C° 0 mm 3 mps 723 mmHg 64%
18:00 +16°C° 0 mm 2 mps 724 mmHg 67%
19:00 +15°C° 0 mm 2 mps 724 mmHg 70%
20:00 +14°C° 0.1 mm 2 mps 724 mmHg 74%
21:00 +14°C° 0.1 mm 2 mps 724 mmHg 77%
22:00 +13°C° 0.1 mm 2 mps 724 mmHg 81%
23:00 +13°C° 0.3 mm 2 mps 724 mmHg 84%

2 October, Friday

Time Temperature Precipitation Wind Pressure Humidity
00:00 +13°C° 0.3 mm 1 mps 723 mmHg 87%
01:00 +12°C° 0.3 mm 1 mps 723 mmHg 90%
02:00 +12°C° 0.5 mm 1 mps 723 mmHg 91%
03:00 +12°C° 0.5 mm 1 mps 723 mmHg 91%
04:00 +12°C° 0.5 mm 1 mps 722 mmHg 92%
05:00 +12°C° 0.1 mm 1 mps 722 mmHg 91%
06:00 +12°C° 0.1 mm 2 mps 722 mmHg 90%
07:00 +12°C° 0.1 mm 2 mps 721 mmHg 89%
08:00 +13°C° 0 mm 2 mps 721 mmHg 84%
09:00 +13°C° 0 mm 3 mps 720 mmHg 78%
10:00 +14°C° 0 mm 3 mps 720 mmHg 73%
11:00 +17°C° 0 mm 4 mps 719 mmHg 68%
12:00 +18°C° 0 mm 4 mps 719 mmHg 63%
13:00 +19°C° 0 mm 5 mps 719 mmHg 58%
14:00 +19°C° 0 mm 4 mps 718 mmHg 58%
15:00 +19°C° 0 mm 4 mps 718 mmHg 58%
16:00 +19°C° 0 mm 4 mps 717 mmHg 58%
17:00 +18°C° 0 mm 4 mps 717 mmHg 62%
18:00 +17°C° 0 mm 4 mps 717 mmHg 65%
19:00 +17°C° 0 mm 4 mps 717 mmHg 68%
20:00 +15°C° 0 mm 4 mps 716 mmHg 70%
21:00 +15°C° 0 mm 5 mps 716 mmHg 71%
22:00 +15°C° 0 mm 5 mps 716 mmHg 72%
23:00 +14°C° 0 mm 5 mps 715 mmHg 73%

3 October, Saturday

Time Temperature Precipitation Wind Pressure Humidity
00:00 +14°C° 0 mm 5 mps 715 mmHg 75%
01:00 +14°C° 0 mm 5 mps 715 mmHg 76%
02:00 +13°C° 0 mm 5 mps 715 mmHg 78%
03:00 +13°C° 0 mm 4 mps 715 mmHg 79%
04:00 +13°C° 0 mm 4 mps 715 mmHg 80%
05:00 +12°C° 0 mm 3 mps 715 mmHg 82%
06:00 +13°C° 0 mm 2 mps 715 mmHg 83%
07:00 +13°C° 0 mm 1 mps 716 mmHg 84%
08:00 +13°C° 0 mm 3 mps 717 mmHg 80%
09:00 +14°C° 0 mm 4 mps 717 mmHg 76%
10:00 +14°C° 0 mm 5 mps 718 mmHg 72%
11:00 +14°C° 0 mm 5 mps 719 mmHg 69%
12:00 +13°C° 0 mm 5 mps 720 mmHg 67%
13:00 +13°C° 0 mm 5 mps 720 mmHg 65%
14:00 +13°C° 0 mm 5 mps 720 mmHg 64%
15:00 +13°C° 0 mm 4 mps 720 mmHg 62%
16:00 +13°C° 0 mm 3 mps 720 mmHg 61%
17:00 +13°C° 0 mm 2 mps 720 mmHg 64%
18:00 +12°C° 0 mm 2 mps 721 mmHg 67%
19:00 +11°C° 0 mm 1 mps 721 mmHg 70%
20:00 +11°C° 0 mm 1 mps 721 mmHg 70%
21:00 +11°C° 0 mm 1 mps 721 mmHg 70%
22:00 +10°C° 0 mm 0 mps 721 mmHg 69%
23:00 +9°C° 0 mm 0 mps 721 mmHg 70%

4 October, Sunday

Time Temperature Precipitation Wind Pressure Humidity
00:00 +9°C° 0 mm 0 mps 721 mmHg 72%
01:00 +8°C° 0 mm 0 mps 720 mmHg 73%
02:00 +8°C° 0 mm 0 mps 720 mmHg 73%
03:00 +8°C° 0 mm 0 mps 720 mmHg 74%
04:00 +8°C° 0 mm 0 mps 719 mmHg 74%
05:00 +8°C° 0 mm 0 mps 719 mmHg 75%
06:00 +9°C° 0 mm 1 mps 719 mmHg 75%
07:00 +9°C° 0 mm 1 mps 719 mmHg 75%
08:00 +11°C° 0 mm 1 mps 719 mmHg 69%
09:00 +12°C° 0 mm 2 mps 719 mmHg 64%
10:00 +14°C° 0 mm 2 mps 720 mmHg 59%
11:00 +15°C° 0 mm 2 mps 720 mmHg 58%
12:00 +14°C° 0 mm 3 mps 720 mmHg 57%
13:00 +16°C° 0 mm 3 mps 720 mmHg 56%
14:00 +15°C° 0 mm 4 mps 720 mmHg 56%
15:00 +15°C° 0 mm 5 mps 721 mmHg 57%
16:00 +15°C° 0 mm 5 mps 721 mmHg 57%
17:00 +14°C° 0 mm 4 mps 721 mmHg 63%
18:00 +12°C° 0 mm 4 mps 722 mmHg 69%
19:00 +11°C° 0 mm 3 mps 722 mmHg 75%
20:00 +10°C° 0 mm 3 mps 723 mmHg 77%
21:00 +9°C° 0 mm 3 mps 723 mmHg 80%
22:00 +9°C° 0 mm 3 mps 723 mmHg 82%
23:00 +8°C° 0 mm 3 mps 724 mmHg 82%
Show more